Back to catalog

STARLINK-3866

AliveCommunicationsVLEO
NORAD 52500·PAYLOAD·🇺🇸 United States

Launched May 6, 2022 from Cape Canaveral Space Force Station

Loading…

Next Passes (next 24 hours)

TLE

FreshSource: CelesTrak SupGP

Epoch: Sep 14, 2026, 21:44 UTC

1 52500C 22049BB  26257.90604167  .00039733  00000+0  20738-2 0  2577
2 52500  53.1578 267.4788 0003142  50.8273  64.8888 15.15401142    17

Track STARLINK-3866 in real time with AllMySat

Download on the App Store